Regional Weather Roundup
Issued by NWS

Home | Current Version | Previous Version | Graphics & Text | Print | Product List | Glossary On
Versions: 1 2 3 4 5 6 7 8 9 10 11 12 13 14 15 16 17 18 19 20 21 22 23 24 25 26 27 28 29 30 31 32 33 34 35 36 37 38 39 40 41 42 43 44 45 46 47 48 49 50
663
ASUS45 KSLC 042010
RWRUT

UTAH REGIONAL WEATHER ROUNDUP
NATIONAL WEATHER SERVICE SALT LAKE CITY UT
200 PM MDT WED MAY 04 2016

UTZ001>011-023>025-042100-

NORTHERN UTAH

CITY           SKY/WX    TMP DP  RH WIND       PRES   REMARKS
BRIGHAM CITY   MOSUNNY   75  28  17 W6        30.10F
HILL AFB       MOSUNNY   74  35  23 SW8       30.10F
LOGAN          SUNNY     74  36  25 S9        30.09F
OGDEN          MOSUNNY   75  31  19 CALM      30.08F
PROVO AIRPORT  PTSUNNY   75  34  22 VRB6      30.10F
SALT LAKE CITY PTSUNNY   80  27  14 S23G31    30.07F
VERNAL         SUNNY     72  29  20 CALM      30.18F
WENDOVER       MOSUNNY   70  39  32 E7        30.07F
HEBER CITY     MOSUNNY   73  32  21 SW15G23   30.12F

$$

UTZ012>022-026-027-042100-

SOUTHERN/CENTRAL UTAH

CITY           SKY/WX    TMP DP  RH WIND       PRES   REMARKS
BLANDING       SUNNY     72  28  19 S13G21    30.31F
BRYCE CANYON   SUNNY     64  26  23 SE16G29   30.26F
CEDAR CITY     MOSUNNY   74  31  20 S14G28    30.08F
DELTA          SUNNY     77  28  16 S16G25    30.08F
HANKSVILLE     SUNNY     81  27  13 SE18G25   30.13F
MILFORD        MOSUNNY   79  30  16 S18G26    30.05F
MOAB/CYNLANDS  SUNNY     80  27  14 W9G16     30.13F
PRICE          SUNNY     72  27  18 SE14G20   30.20F
ST GEORGE      PTCLDY    86  32  14 SW9       29.95F

$$

REGIONAL REPORTS     COLORADO/ARIZONA

CITY           SKY/WX    TMP DP  RH WIND       PRES   REMARKS
CRAIG, CO      SUNNY     71  28  20 W6G22     30.22F
GRAND JUNCTION SUNNY     74  31  20 NW10      30.16F
RIFLE          SUNNY     75  26  16 W15G21    30.18F
MONTROSE       SUNNY     74  25  16 VRB5      30.22F
CORTEZ         SUNNY     73  24  16 W7G21     30.25F
PAGE, AZ       SUNNY     78  31  17 VRB5      30.09F
GRAND CANYON   SUNNY     73  22  14 S15G23    30.20F
KINGMAN        SUNNY     88  23   9 SE20G37   29.97F
FLAGSTAFF      SUNNY     70  27  20 S16G28    30.24S

$$

REGIONAL REPORTS    NEVADA/IDAHO/WYOMING

CITY           SKY/WX    TMP DP  RH WIND       PRES   REMARKS
LAS VEGAS, NV  MOSUNNY   86  34  15 CALM      29.87F
ELY            PTSUNNY   70  29  21 S21G35    30.10F
ELKO           MOSUNNY   73  33  23 S13       30.03F
POCATELLO, ID  MOSUNNY   77  33  20 S9G18     30.07F
BURLEY         MOSUNNY   76  34  21 S6        30.01F
EVANSTON, WY   SUNNY     70  25  18 SW17G24   30.21F
ROCK SPRINGS   SUNNY     68  26  20 VRB5      30.21F
KEMMERER         N/A     68  21  17 SW10      30.23F

$$




USA.gov is the U.S. government's official web portal to all federal, state and local government web resources and services.